Location: Newark
(21.1200°N, 73.4000°E)
Time: 13:48:42
(UTC+00:00)

Vanguard 3 - All Passes

Search period start: 17 January 2020 00:00
Search period end: 27 January 2020 00:00
Orbit: 508 x 3263 km, 33.3° (Epoch: 17 January)

Date Brightness Start Highest point End Pass type
(mag) Time Alt. Az. Time Alt. Az. Time Alt. Az.
17 Jan - 10:35:01 10° SSW 10:50:59 33° SE 11:06:15 10° E daylight
17 Jan - 12:47:36 10° SW 13:07:42 73° SSE 13:22:44 10° ENE visible
17 Jan - 15:05:53 10° W 15:24:16 63° NNW 15:35:33 10° ENE visible
17 Jan - 17:27:22 10° WNW 17:40:07 41° N 17:47:35 10° ENE visible
17 Jan - 19:45:56 10° WNW 19:54:37 49° NNE 19:59:41 10° E night (unlit)
17 Jan - 22:01:21 10° WNW 22:06:26 34° SW 22:10:05 10° SSE night (unlit)
18 Jan - 09:22:47 10° S 09:34:12 19° SE 09:46:11 10° E daylight
18 Jan - 11:31:46 10° SW 11:50:37 54° SE 12:07:09 10° ENE daylight
18 Jan - 13:47:26 10° WSW 14:07:33 80° NNW 14:21:19 10° ENE visible
18 Jan - 16:08:02 10° W 16:24:08 49° NNW 16:33:44 10° ENE visible
18 Jan - 18:28:42 10° WNW 18:39:41 43° N 18:46:00 10° ENE visible
18 Jan - 20:45:23 10° WNW 20:52:58 84° SSW 20:57:30 10° ESE night (unlit)
19 Jan - 10:17:23 10° SSW 10:33:41 37° SE 10:50:06 10° E daylight
19 Jan - 12:30:14 10° SW 12:50:26 80° SSE 13:06:29 10° ENE daylight
19 Jan - 14:48:43 10° W 15:07:34 60° NNW 15:19:39 10° ENE visible
19 Jan - 17:10:14 10° WNW 17:24:04 43° N 17:32:08 10° ENE visible
19 Jan - 19:28:57 10° WNW 19:38:46 60° NNE 19:44:17 10° E night (unlit)
19 Jan - 21:45:11 10° W 21:50:24 28° SW 21:54:06 10° SSE night (unlit)
20 Jan - 09:04:50 10° S 09:17:06 23° SE 09:30:34 10° E daylight
20 Jan - 11:14:25 10° SW 11:33:13 60° SE 11:50:45 10° ENE daylight
20 Jan - 13:30:14 10° WSW 13:50:29 75° NNW 14:05:09 10° ENE visible
20 Jan - 15:50:55 10° W 16:07:46 49° N 16:18:03 10° ENE visible
20 Jan - 18:11:32 10° WNW 18:23:46 49° N 18:30:38 10° E visible
20 Jan - 20:28:39 10° WNW 20:37:01 68° SSW 20:41:52 10° SE night (unlit)
21 Jan - 07:58:53 10° SE 08:00:50 10° SE 08:02:50 10° SE daylight
21 Jan - 10:00:02 10° SSW 10:16:17 42° SE 10:33:43 10° ENE daylight
21 Jan - 12:13:04 10° WSW 12:33:06 86° SSE 12:50:06 10° ENE daylight
21 Jan - 14:31:37 10° W 14:50:50 58° NNW 15:03:41 10° ENE visible
21 Jan - 16:53:02 10° WNW 17:07:57 47° N 17:16:39 10° ENE visible
21 Jan - 19:11:51 10° WNW 19:22:50 72° NNE 19:28:49 10° ESE night (unlit)
21 Jan - 21:29:00 10° W 21:34:16 23° SW 21:38:01 10° S night (unlit)
22 Jan - 08:47:16 10° S 08:59:54 26° SE 09:14:31 10° E daylight
22 Jan - 10:57:17 10° SW 11:15:45 67° SE 11:34:12 10° ENE daylight
22 Jan - 13:13:11 10° WSW 13:33:24 71° NNW 13:48:55 10° ENE visible
22 Jan - 15:33:48 10° WNW 15:51:21 50° N 16:02:21 10° ENE visible
22 Jan - 17:54:16 10° WNW 18:07:45 55° NNE 18:15:13 10° E visible
22 Jan - 20:11:52 10° WNW 20:20:56 56° SW 20:26:09 10° SE night (unlit)
23 Jan - 07:38:15 10° SSE 07:43:59 13° SE 07:50:19 10° ESE daylight
23 Jan - 09:42:53 10° SSW 09:58:50 47° SE 10:17:07 10° ENE daylight
23 Jan - 11:56:04 10° WSW 12:15:44 88° NNW 12:33:35 10° ENE daylight
23 Jan - 14:14:37 10° W 14:34:04 57° NNW 14:47:42 10° ENE visible
23 Jan - 16:35:46 10° WNW 16:51:45 50° N 17:01:08 10° E visible
23 Jan - 18:54:40 10° WNW 19:06:47 84° NNE 19:13:16 10° ESE visible
23 Jan - 21:12:51 10° W 21:18:02 20° SW 21:21:49 10° S night (unlit)
24 Jan - 08:30:00 10° S 08:42:38 30° SE 08:58:09 10° E daylight
24 Jan - 10:40:21 10° SW 10:58:16 73° SE 11:17:29 10° ENE daylight
24 Jan - 12:56:17 10° WSW 13:16:18 67° NNW 13:32:37 10° ENE visible
24 Jan - 15:16:40 10° WNW 15:34:53 51° N 15:46:38 10° ENE visible
24 Jan - 17:36:55 10° WNW 17:51:37 63° NNE 17:59:43 10° E visible
24 Jan - 19:54:59 10° WNW 20:04:44 48° SW 20:10:20 10° SE night (unlit)
25 Jan - 07:19:53 10° SSE 07:27:03 15° SE 07:35:26 10° ESE daylight
25 Jan - 09:25:57 10° SSW 09:41:24 52° SE 10:00:18 10° ENE daylight
25 Jan - 11:39:15 10° WSW 11:58:24 82° NNW 12:16:59 10° ENE daylight
25 Jan - 13:57:41 10° W 14:17:17 56° N 14:31:41 10° ENE visible
25 Jan - 16:18:28 10° WNW 16:35:28 54° N 16:45:34 10° E visible
25 Jan - 18:37:25 10° WNW 18:50:35 85° SSW 18:57:38 10° ESE visible
25 Jan - 20:56:44 10° W 21:01:43 17° SW 21:05:28 10° S night (unlit)
26 Jan - 08:12:59 10° SSW 08:25:21 33° SE 08:41:30 10° E daylight
26 Jan - 10:23:36 10° SW 10:40:48 79° SSE 11:00:39 10° ENE daylight
26 Jan - 12:39:32 10° W 12:59:12 64° NNW 13:16:15 10° ENE visible
26 Jan - 14:59:34 10° WNW 15:18:22 53° N 15:30:52 10° ENE visible
26 Jan - 17:19:29 10° WNW 17:35:23 71° NNE 17:44:08 10° ESE visible
26 Jan - 19:38:04 10° WNW 19:48:23 41° SW 19:54:26 10° SSE night (unlit)
